Minerva Zenia — SYNB — position and weather

sailwx.info

Track history (hours):
 
Tides and Currents Weather Stations Pressure Air Temp Water Temp Dewpoint Dewpoint Depression Visibility Wind Speed Wind Dir Waves Ship Positions

Minerva Zenia

Last reported at 2014-Oct-17 04:31 UTC. Time now 2014-Oct-20 09:59 UTC.
Position N 59°59' E 026°34'.

Length 248 m; draft 8.3 m.

Type: Ship. MMSI: 240014000.

Date/timePositionNaut miles runAvg speedWind from/ knotsBaromVisibWave heightAir tempDewpointWater temp
2014-Oct-17 04:31N 59°59' E 026°34'9 9.5
2014-Oct-17 03:33N 59°56' E 026°17'62 9.8
2014-Oct-16 21:12N 59°42' E 024°16'8 9.7
2014-Oct-16 20:20N 59°39' E 024°00'19 9.5
2014-Oct-16 18:19N 59°33' E 023°25'345 7.9
2014-Oct-14 22:33N 55°37' E 015°34'6 5.8
2014-Oct-14 21:33N 55°35' E 015°24'6 6.1
2014-Oct-14 20:33N 55°33' E 015°15'6 6.2
2014-Oct-14 19:33N 55°30' E 015°05'7 6.3
2014-Oct-14 18:30N 55°27' E 014°54'6 6.3
2014-Oct-14 17:31N 55°25' E 014°44'6 6.1
2014-Oct-14 16:33N 55°21' E 014°36'6 6.3
2014-Oct-14 15:33N 55°16' E 014°29'6 6.2
2014-Oct-14 14:32N 55°11' E 014°23'84 9.4
2014-Oct-14 05:33N 54°30' E 012°15'1111.3
2014-Oct-14 04:33N 54°25' E 011°57'  
2014-Oct-11 23:32N 54°40' E 010°50'2512.7
2014-Oct-11 21:33N 54°31' E 011°31'1312.7
2014-Oct-11 20:33N 54°26' E 011°51'1211.9
2014-Oct-11 19:33N 54°27' E 012°12'21 9.9
2014-Oct-11 17:27N 54°43' E 012°35'2110.7
2014-Oct-11 15:32N 54°52' E 013°07'3712.2
2014-Oct-11 12:28N 55°07' E 014°07'1612.2
2014-Oct-11 11:09N 55°19' E 014°25'712.2
2014-Oct-11 10:33N 55°25' E 014°33'1211.9
2014-Oct-11 09:32N 55°31' E 014°51'1212.2
2014-Oct-11 08:32N 55°37' E 015°10'1211.9
2014-Oct-11 07:33N 55°40' E 015°30'1212.1
2014-Oct-11 06:33N 55°43' E 015°51'4212.9
2014-Oct-11 03:17N 55°54' E 017°03'912.7
2014-Oct-11 02:33N 55°56' E 017°19'1312.7
2014-Oct-11 01:33N 55°60' E 017°41'1912.8
2014-Oct-11 00:04N 56°10' E 018°10'23012.4
2014-Oct-10 05:26N 59°21' E 022°09'1512.3
2014-Oct-10 04:12N 59°30' E 022°33'1312.3
2014-Oct-10 03:08N 59°34' E 022°58'712.2
2014-Oct-10 02:31N 59°36' E 023°12'1212.2
2014-Oct-10 01:33N 59°40' E 023°35'1312.1
2014-Oct-10 00:29N 59°43' E 023°59'7212.2
2014-Oct-09 18:33N 59°59' E 026°20'1212.5
2014-Oct-09 17:33N 60°01' E 026°44'1611.9
2014-Oct-09 16:14N 60°03' E 027°16'  
Track history (hours):
 
Tides and Currents Weather Stations Pressure Air Temp Water Temp Dewpoint Dewpoint Depression Visibility Wind Speed Wind Dir Waves Ship Positions

Minerva Zenia

Last reported at 2014-Oct-17 04:31 UTC. Time now 2014-Oct-20 09:59 UTC.
Position N 59°59' E 026°34'.

Length 248 m; draft 8.3 m.

Type: Ship. MMSI: 240014000.

Date/timePositionNaut miles runAvg speedWind from/ knotsBaromVisibWave heightAir tempDewpointWater temp
2014-Oct-17 04:31N 59°59' E 026°34'9 9.5
2014-Oct-17 03:33N 59°56' E 026°17'62 9.8
2014-Oct-16 21:12N 59°42' E 024°16'8 9.7
2014-Oct-16 20:20N 59°39' E 024°00'19 9.5
2014-Oct-16 18:19N 59°33' E 023°25'345 7.9
2014-Oct-14 22:33N 55°37' E 015°34'6 5.8
2014-Oct-14 21:33N 55°35' E 015°24'6 6.1
2014-Oct-14 20:33N 55°33' E 015°15'6 6.2
2014-Oct-14 19:33N 55°30' E 015°05'7 6.3
2014-Oct-14 18:30N 55°27' E 014°54'6 6.3
2014-Oct-14 17:31N 55°25' E 014°44'6 6.1
2014-Oct-14 16:33N 55°21' E 014°36'6 6.3
2014-Oct-14 15:33N 55°16' E 014°29'6 6.2
2014-Oct-14 14:32N 55°11' E 014°23'84 9.4
2014-Oct-14 05:33N 54°30' E 012°15'1111.3
2014-Oct-14 04:33N 54°25' E 011°57'  
2014-Oct-11 23:32N 54°40' E 010°50'2512.7
2014-Oct-11 21:33N 54°31' E 011°31'1312.7
2014-Oct-11 20:33N 54°26' E 011°51'1211.9
2014-Oct-11 19:33N 54°27' E 012°12'21 9.9
2014-Oct-11 17:27N 54°43' E 012°35'2110.7
2014-Oct-11 15:32N 54°52' E 013°07'3712.2
2014-Oct-11 12:28N 55°07' E 014°07'1612.2
2014-Oct-11 11:09N 55°19' E 014°25'712.2
2014-Oct-11 10:33N 55°25' E 014°33'1211.9
2014-Oct-11 09:32N 55°31' E 014°51'1212.2
2014-Oct-11 08:32N 55°37' E 015°10'1211.9
2014-Oct-11 07:33N 55°40' E 015°30'1212.1
2014-Oct-11 06:33N 55°43' E 015°51'4212.9
2014-Oct-11 03:17N 55°54' E 017°03'912.7
2014-Oct-11 02:33N 55°56' E 017°19'1312.7
2014-Oct-11 01:33N 55°60' E 017°41'1912.8
2014-Oct-11 00:04N 56°10' E 018°10'23012.4
2014-Oct-10 05:26N 59°21' E 022°09'1512.3
2014-Oct-10 04:12N 59°30' E 022°33'1312.3
2014-Oct-10 03:08N 59°34' E 022°58'712.2
2014-Oct-10 02:31N 59°36' E 023°12'1212.2
2014-Oct-10 01:33N 59°40' E 023°35'1312.1
2014-Oct-10 00:29N 59°43' E 023°59'7212.2
2014-Oct-09 18:33N 59°59' E 026°20'1212.5
2014-Oct-09 17:33N 60°01' E 026°44'1611.9
2014-Oct-09 16:14N 60°03' E 027°16'  

Dump ship's entire track history